Mytilini, Greece

2:08 PM EEST on March 26, 2017 (GMT +0300)
Odysseas Elytis

Weather History for LGMT - January, 2014

Change the Weather History Date:

Tuesday, January 21, 2014

  Actual Average Record
Temperature  
Mean Temperature 62 °F -  
Max Temperature 65 °F 55 °F 65 °F (2014)
Min Temperature 59 °F 45 °F 28 °F (2000)
Degree Days  
Heating Degree Days 3    
Growing Degree Days 12 (Base 50)    
Moisture  
Dew Point 53 °F    
Average Humidity 70    
Maximum Humidity 82    
Minimum Humidity 56    
Precipitation  
Precipitation 0.20 in 0.14 in - ()
Sea Level Pressure  
Sea Level Pressure 29.93 in    
Wind  
Wind Speed 7 mph ()    
Max Wind Speed 14 mph    
Max Gust Speed -    
Visibility 6.0 miles    
Events Rain    
Averages and records for this station are not official NWS values.
T = Trace of Precipitation, MM = Missing Value Source: Averaged Metar Reports

Daily Weather History Graph

Daily Weather History Graph

Search for Another Location

Airport or City:

Trip Planner

Search our weather history database for the weather conditions in past years. The results will help you decide how hot, cold, wet, or windy it might be!

Date:

Astronomy

Jan. 21, 2014 Rise Set
Actual Time 7:28 AM EET 5:21 PM EET
Civil Twilight 6:59 AM EET 5:50 PM EET
Nautical Twilight 6:26 AM EET 6:23 PM EET
Astronomical Twilight 5:55 AM EET 6:54 PM EET
Moon 10:32 PM EET (1/21) 9:51 AM EET (1/21)
Length of Visible Light 10h 51m
Length of Day
9h 53m
Waning Gibbous, 77% of the Moon is Illuminated
Jan 21
Waning Gibbous
Jan 24
Last Quarter
Jan 30
New
Feb 6
First Quarter
Feb 15
Full

Hourly Weather History & Observations

Time (EET) Temp. Dew Point Humidity Pressure Visibility Wind Dir Wind Speed Gust Speed Precip Events Conditions
12:50 AM 60.8 °F 53.6 °F 77% 30.01 in - North - - N/A   Scattered Clouds
1:50 AM 60.8 °F 51.8 °F 72% 29.98 in - North - - N/A   Partly Cloudy
2:00 AM 60 °F 51 °F 65% 29.99 in 6 mi South 6.9 mph - -   Scattered Clouds
2:50 AM 60.8 °F 51.8 °F 72% 29.98 in - North - - N/A   Partly Cloudy
3:50 AM 59.0 °F 53.6 °F 82% 29.98 in - North - - N/A   Partly Cloudy
4:20 AM 59.0 °F 53.6 °F 82% 29.98 in - North - - N/A   Partly Cloudy
4:50 AM 59.0 °F 51.8 °F 77% 29.98 in - North - - N/A   Scattered Clouds
5:00 AM 60 °F 52 °F 66% 29.98 in 6 mi SSE 5.8 mph - -   Partly Cloudy
5:20 AM 59.0 °F 51.8 °F 77% 29.98 in - North - - N/A   Scattered Clouds
5:50 AM 60.8 °F 51.8 °F 72% 29.98 in - North - - N/A   Scattered Clouds
6:20 AM 60.8 °F 51.8 °F 72% 29.95 in - North - - N/A   Scattered Clouds
6:50 AM 60.8 °F 51.8 °F 72% 29.95 in - North - - N/A   Scattered Clouds
7:20 AM 60.8 °F 51.8 °F 72% 29.95 in - North - - N/A   Scattered Clouds
7:50 AM 60.8 °F 51.8 °F 72% 29.95 in - North - - N/A   Scattered Clouds
8:00 AM 61 °F 51 °F 62% 29.96 in 6 mi SE 9.2 mph - -   Partly Cloudy
8:20 AM 60.8 °F 51.8 °F 72% 29.95 in - North - - N/A   Scattered Clouds
8:50 AM 60.8 °F 51.8 °F 72% 29.95 in - North - - N/A   Scattered Clouds
9:20 AM 60.8 °F 51.8 °F 72% 29.95 in - North - - N/A   Scattered Clouds
9:50 AM 62.6 °F 53.6 °F 72% 29.95 in - North - - N/A   Scattered Clouds
10:20 AM 62.6 °F 53.6 °F 72% 29.95 in - North - - N/A   Scattered Clouds
10:50 AM 64.4 °F 53.6 °F 68% 29.95 in - North - - N/A   Scattered Clouds
11:00 AM 64 °F 53 °F 60% 29.96 in 6 mi SSE 13.8 mph - -   Partly Cloudy
11:20 AM 64.4 °F 53.6 °F 68% 29.95 in - North - - N/A   Scattered Clouds
11:50 AM 64.4 °F 53.6 °F 68% 29.95 in - North - - N/A   Scattered Clouds
12:20 PM 64.4 °F 53.6 °F 68% 29.95 in - North - - N/A   Scattered Clouds
12:50 PM 64.4 °F 53.6 °F 68% 29.92 in - North - - N/A   Scattered Clouds
1:20 PM 64.4 °F 53.6 °F 68% 29.92 in - North - - N/A   Scattered Clouds
1:50 PM 64.4 °F 53.6 °F 68% 29.92 in - North - - N/A   Scattered Clouds
2:00 PM 65 °F 53 °F 56% 29.93 in 6 mi SSE 10.4 mph - -   Partly Cloudy
2:20 PM 64.4 °F 53.6 °F 68% 29.89 in - North - - N/A   Scattered Clouds
2:50 PM 64.4 °F 53.6 °F 68% 29.89 in - North - - N/A   Scattered Clouds
3:20 PM 64.4 °F 53.6 °F 68% 29.89 in - North - - N/A   Scattered Clouds
3:50 PM 64.4 °F 53.6 °F 68% 29.89 in - North - - N/A   Scattered Clouds
4:20 PM 64.4 °F 53.6 °F 68% 29.89 in - North - - N/A   Scattered Clouds
4:50 PM 64.4 °F 53.6 °F 68% 29.89 in - North - - N/A   Scattered Clouds
5:00 PM 64 °F 54 °F 60% 29.91 in 6 mi SSE 11.5 mph - -   Partly Cloudy
5:20 PM 62.6 °F 53.6 °F 72% 29.89 in - North - - N/A   Scattered Clouds
5:50 PM 62.6 °F 53.6 °F 72% 29.89 in - North - - N/A   Scattered Clouds
6:20 PM 62.6 °F 53.6 °F 72% 29.89 in - North - - N/A   Scattered Clouds
6:50 PM 62.6 °F 53.6 °F 72% 29.89 in - North - - N/A   Mostly Cloudy
7:20 PM 62.6 °F 53.6 °F 72% 29.89 in - North - - N/A   Mostly Cloudy
7:50 PM 62.6 °F 53.6 °F 72% 29.89 in - North - - N/A   Mostly Cloudy
8:00 PM 63 °F 54 °F 65% 29.91 in 6 mi SSE 11.5 mph - -   Partly Cloudy
8:20 PM 62.6 °F 55.4 °F 77% 29.86 in - North - - N/A Rain Light Rain
8:50 PM 60.8 °F 51.8 °F 72% 29.86 in - North - - N/A   Mostly Cloudy
9:20 PM 60.8 °F 48.2 °F 63% 29.86 in - North - - N/A   Scattered Clouds
9:50 PM 60.8 °F 50.0 °F 68% 29.89 in - North - - N/A   Scattered Clouds
10:20 PM 60.8 °F 50.0 °F 68% 29.86 in - North - - N/A   Scattered Clouds
10:50 PM 60.8 °F 50.0 °F 68% 29.86 in - North - - N/A   Partly Cloudy
11:00 PM 61 °F 50 °F 59% 29.88 in 6 mi South 10.4 mph - -   Scattered Clouds
11:50 PM 60.8 °F 51.8 °F 72% 29.86 in - North - - N/A   Scattered Clouds